This demonstration page uses our WeatherBlox Daily Observations layout. Learn more.

Left ArrowRight Arrow

36.17497, -115.13722

Hourly Observations for April 4, 2017

Temp ( °F °C ) Dew Point ( °F °C ) Humidity (%) Winds ( mph kmh ) Pressure ( in mb ) Visibility ( mi km ) Precip ( " mm )
12:53 am 00:53 Clear 54 12.2 38 3.3 55 55 N N/A 29.96 1015 10 16 N/A
1:53 am 01:53 Clear 51 10.6 39 3.9 64 64 N 5 7 29.98 1015 10 16 N/A
2:53 am 02:53 Clear 51 10.6 38 3.3 61 61 WNW 6 9 30.00 1016 10 16 N/A
3:53 am 03:53 Clear 51 10.6 37 2.8 59 59 NNW 5 7 30.00 1016 10 16 N/A
4:53 am 04:53 Clear 51 10.6 35 1.7 54 54 NW 7 11 30.01 1016 10 16 N/A
5:53 am 05:53 Clear 49 9.4 35 1.7 59 59 NE 3 6 30.04 1017 10 16 N/A
6:53 am 06:53 Sunny 51 10.6 30 -1.1 44 44 N 7 11 30.07 1018 10 16 N/A
7:53 am 07:53 Sunny 52 11.1 31 -0.6 45 45 S 5 7 30.10 1019 10 16 N/A
8:53 am 08:53 Sunny 56 13.3 31 -0.6 39 39 SSE 8 13 30.12 1020 10 16 N/A
9:53 am 09:53 Sunny 60 15.6 24 -4.4 25 25 S 8 13 30.13 1020 10 16 N/A
10:53 am 10:53 Sunny 62 16.7 18 -7.8 18 18 E 8 13 30.14 1021 10 16 N/A
11:53 am 11:53 Sunny 65 18.3 15 -9.4 14 14 ESE 8 13 30.11 1020 10 16 N/A
12:53 pm 12:53 Sunny 66 18.9 14 -10 13 13 undefined N/A 30.09 1019 10 16 N/A
1:53 pm 13:53 Sunny 68 20 15 -9.4 13 13 SSE 10 17 30.09 1019 10 16 N/A
2:53 pm 14:53 Sunny 68 20 15 -9.4 13 13 E 7 11 30.08 1019 10 16 N/A
3:53 pm 15:53 Sunny 69 20.6 15 -9.4 12 12 E 8 13 30.07 1018 10 16 N/A
4:53 pm 16:53 Sunny 68 20 14 -10 12 12 SSE 6 9 30.06 1018 10 16 N/A
5:53 pm 17:53 Sunny 68 20 16 -8.9 13 13 S 8 13 30.07 1018 10 16 N/A
6:53 pm 18:53 Sunny 67 19.4 17 -8.3 15 15 SE 6 9 30.08 1019 10 16 N/A
7:53 pm 19:53 Clear 65 18.3 19 -7.2 17 17 ESE 3 6 30.11 1020 10 16 N/A
8:53 pm 20:53 Clear 63 17.2 22 -5.6 21 21 ENE 5 7 30.12 1020 10 16 N/A
9:53 pm 21:53 Clear 61 16.1 24 -4.4 24 24 NE 5 7 30.14 1021 10 16 N/A
10:53 pm 22:53 Clear 61 16.1 22 -5.6 22 22 N N/A 30.16 1021 10 16 N/A
11:53 pm 23:53 Clear 59 15 26 -3.3 28 28 N N/A 30.16 1021 10 16 N/A

Powered by AerisWeather